Flag for China Weather past 2 weeks in Changchun, Jilin, China

Now
66 °F

Clear.


Feels Like: 66 °F
Forecast: 57 / 66 °F
Wind: 3 mph from Southwest

Location: Changchun Airport

Current Time: Jun 30, 2015 at 9:29:10 PM

Latest Report: Jun 30, 2015 at 9:00 PM


Visibility: 10 mi

Pressure: 29.39 "Hg

Humidity: 52%

Dew point: 48 °F

Location of ChangchunLocation

Historic Weather in Changchun — Graph

°F

Changchun temperature yesterday

Maximum temperature yesterday: 73 °F (at 4:00 PM)
Minimum temperature yesterday: 59 °F (at 5:00 AM)
Average temperature yesterday: 65 °F

Past Weeks' High & Low Weather Summary

 TemperatureHumidityPressure
High91 °F (Jun 22, 2:00 PM)94% (Jun 19, 12:00 AM)29.86 "Hg (Jun 19, 12:00 AM)
Low54 °F (Jun 30, 2:00 AM)22% (Jun 23, 4:00 PM)29.39 "Hg (Jun 30, 7:00 PM)
Average74 °F59%29.71 "Hg
* Reported Jun 15 8:00 PM — Jun 30 8:00 PM, Changchun, Weather by CustomWeather, © 2015

Note: Actual official high and low records may vary slightly from our data, if they occured in-between our weather recording intervals... More about our weather records

Advertising

Changchun weather history for previous 24 hours

 ConditionsComfort  
Time TempWeatherWind HumidityBarometerVisibility
8:00 PM
Tue, Jun 30
66 °FPassing clouds.3 mph56%29.39 "HgN/A
7:00 PM70 °FScattered clouds.3 mph50%29.39 "HgN/A
6:00 PM73 °FScattered clouds.3 mph44%29.42 "HgN/A
5:00 PM73 °FScattered clouds.6 mph41%29.42 "HgN/A
4:00 PM73 °FScattered clouds.6 mph41%29.45 "HgN/A
3:00 PM75 °FScattered clouds.8 mph39%29.47 "HgN/A
2:00 PM75 °FScattered clouds.6 mph39%29.50 "HgN/A
1:00 PM75 °FPassing clouds.3 mph31%29.53 "HgN/A
12:00 PM75 °FPassing clouds.10 mph39%29.56 "HgN/A
11:00 AM75 °FPassing clouds.6 mph36%29.59 "HgN/A
10:00 AM73 °FPassing clouds.6 mph47%29.62 "HgN/A
9:00 AM72 °FSunny.3 mph50%29.62 "Hg10 mi
8:00 AM68 °FPassing clouds.3 mph56%29.65 "HgN/A
7:00 AM66 °FPassing clouds.3 mph68%29.65 "HgN/A
6:00 AM61 °FSunny.3 mph83%29.68 "Hg10 mi
5:00 AM55 °FSunny.3 mph94%29.68 "Hg10 mi
4:00 AM54 °FSunny.3 mph88%29.71 "Hg10 mi
3:00 AM54 °FClear.3 mph88%29.71 "Hg10 mi
2:00 AM54 °FClear.3 mph88%29.71 "Hg10 mi
1:00 AM55 °FPassing clouds.3 mph82%29.71 "HgN/A
12:00 AM55 °FClear.1 mph82%29.74 "Hg10 mi
11:00 PM
Mon, Jun 29
59 °FClear.1 mph77%29.74 "Hg10 mi
10:00 PM59 °FPassing clouds.3 mph77%29.74 "HgN/A
9:00 PM61 °FClear.1 mph72%29.74 "Hg10 mi
Weather by CustomWeather, © 2015

See weather overviewHow to use our weather pages